![]() |
EMODnet Physics ERDDAP
Easier access to scientific data |
log in|
Brought to you by EMODnet Physics |
| Dataset Title: | NDBC - Collection of dew point temperature (DEWT) TimeSeries - IN SITU MultiPointTimeSeriesObservation
|
| Institution: | NDBC (Dataset ID: TS_DEWT_NDBC) |
| Information: | Summary
| License
| FGDC
| ISO 19115
| Metadata
| Background
| Subset
| Data Access Form
| Make a graph
|
| Name | Last modified | Size | Description | |
|---|---|---|---|---|
| Parent Directory | - | - | ||
| TXPT2_TS_DEWT_012012.nc | 28-Oct-2024 00:49 | 1111007 | ||
| TXPT2_TS_DEWT_012013.nc | 28-Oct-2024 00:49 | 1111462 | ||
| TXPT2_TS_DEWT_012014.nc | 28-Oct-2024 00:49 | 917058 | ||
| TXPT2_TS_DEWT_012016.nc | 28-Oct-2024 00:50 | 1117183 | ||
| TXPT2_TS_DEWT_012017.nc | 28-Oct-2024 00:50 | 1112271 | ||
| TXPT2_TS_DEWT_012018.nc | 28-Oct-2024 00:50 | 1114763 | ||
| TXPT2_TS_DEWT_012019.nc | 28-Oct-2024 00:50 | 1112897 | ||
| TXPT2_TS_DEWT_012020.nc | 28-Oct-2024 00:50 | 5134036 | ||
| TXPT2_TS_DEWT_012021.nc | 28-Oct-2024 00:50 | 429683 | ||
| TXPT2_TS_DEWT_012022.nc | 28-Oct-2024 00:50 | 429689 | ||
| TXPT2_TS_DEWT_022012.nc | 28-Oct-2024 00:50 | 429303 | ||
| TXPT2_TS_DEWT_022013.nc | 28-Oct-2024 00:50 | 429671 | ||
| TXPT2_TS_DEWT_022014.nc | 28-Oct-2024 00:50 | 429698 | ||
| TXPT2_TS_DEWT_022016.nc | 28-Oct-2024 00:50 | 429670 | ||
| TXPT2_TS_DEWT_022017.nc | 28-Oct-2024 00:50 | 429690 | ||
| TXPT2_TS_DEWT_022018.nc | 28-Oct-2024 00:50 | 429698 | ||
| TXPT2_TS_DEWT_022019.nc | 28-Oct-2024 00:50 | 429691 | ||
| TXPT2_TS_DEWT_022020.nc | 28-Oct-2024 00:50 | 429690 | ||
| TXPT2_TS_DEWT_022021.nc | 28-Oct-2024 00:50 | 429701 | ||
| TXPT2_TS_DEWT_022022.nc | 28-Oct-2024 00:50 | 429702 | ||
| TXPT2_TS_DEWT_032012.nc | 28-Oct-2024 00:50 | 429691 | ||
| TXPT2_TS_DEWT_032013.nc | 28-Oct-2024 00:51 | 429696 | ||
| TXPT2_TS_DEWT_032016.nc | 28-Oct-2024 00:51 | 429689 | ||
| TXPT2_TS_DEWT_032017.nc | 28-Oct-2024 00:51 | 429918 | ||
| TXPT2_TS_DEWT_032018.nc | 28-Oct-2024 00:51 | 429914 | ||
| TXPT2_TS_DEWT_032019.nc | 28-Oct-2024 00:51 | 429911 | ||
| TXPT2_TS_DEWT_032020.nc | 28-Oct-2024 00:51 | 429889 | ||
| TXPT2_TS_DEWT_032021.nc | 28-Oct-2024 00:51 | 429909 | ||
| TXPT2_TS_DEWT_032022.nc | 28-Oct-2024 00:51 | 429914 | ||
| TXPT2_TS_DEWT_042012.nc | 28-Oct-2024 00:51 | 429918 | ||
| TXPT2_TS_DEWT_042013.nc | 28-Oct-2024 00:51 | 429786 | ||
| TXPT2_TS_DEWT_042014.nc | 28-Oct-2024 00:51 | 429816 | ||
| TXPT2_TS_DEWT_042016.nc | 28-Oct-2024 00:51 | 1264728 | ||
| TXPT2_TS_DEWT_042017.nc | 28-Oct-2024 00:51 | 1265231 | ||
| TXPT2_TS_DEWT_042018.nc | 28-Oct-2024 00:51 | 1143201 | ||
| TXPT2_TS_DEWT_042019.nc | 28-Oct-2024 00:52 | 1105908 | ||
| TXPT2_TS_DEWT_042020.nc | 28-Oct-2024 00:52 | 1264725 | ||
| TXPT2_TS_DEWT_042021.nc | 28-Oct-2024 00:52 | 1264410 | ||
| TXPT2_TS_DEWT_042022.nc | 28-Oct-2024 00:52 | 1267599 | ||
| TXPT2_TS_DEWT_052013.nc | 28-Oct-2024 00:52 | 429678 | ||
| TXPT2_TS_DEWT_052014.nc | 28-Oct-2024 00:52 | 429699 | ||
| TXPT2_TS_DEWT_052016.nc | 28-Oct-2024 00:52 | 419251 | ||
| TXPT2_TS_DEWT_052017.nc | 28-Oct-2024 00:52 | 429673 | ||
| TXPT2_TS_DEWT_052018.nc | 28-Oct-2024 00:52 | 424217 | ||
| TXPT2_TS_DEWT_052019.nc | 28-Oct-2024 00:52 | 429700 | ||
| TXPT2_TS_DEWT_052020.nc | 28-Oct-2024 00:52 | 424036 | ||
| TXPT2_TS_DEWT_052021.nc | 28-Oct-2024 00:52 | 429690 | ||
| TXPT2_TS_DEWT_052022.nc | 28-Oct-2024 00:52 | 429697 | ||
| TXPT2_TS_DEWT_062012.nc | 28-Oct-2024 00:52 | 429693 | ||
| TXPT2_TS_DEWT_062013.nc | 28-Oct-2024 00:52 | 429690 | ||
| TXPT2_TS_DEWT_062014.nc | 28-Oct-2024 00:53 | 429701 | ||
| TXPT2_TS_DEWT_062016.nc | 28-Oct-2024 00:53 | 429695 | ||
| TXPT2_TS_DEWT_062017.nc | 28-Oct-2024 00:53 | 429692 | ||
| TXPT2_TS_DEWT_062018.nc | 28-Oct-2024 00:53 | 429697 | ||
| TXPT2_TS_DEWT_062019.nc | 28-Oct-2024 00:53 | 429701 | ||
| TXPT2_TS_DEWT_062020.nc | 28-Oct-2024 00:53 | 429913 | ||
| TXPT2_TS_DEWT_062021.nc | 28-Oct-2024 00:53 | 429913 | ||
| TXPT2_TS_DEWT_062022.nc | 28-Oct-2024 00:53 | 429915 | ||
| TXPT2_TS_DEWT_072012.nc | 28-Oct-2024 00:53 | 429912 | ||
| TXPT2_TS_DEWT_072013.nc | 28-Oct-2024 00:53 | 429914 | ||
| TXPT2_TS_DEWT_072014.nc | 28-Oct-2024 00:53 | 429912 | ||
| TXPT2_TS_DEWT_072017.nc | 28-Oct-2024 00:53 | 429894 | ||
| TXPT2_TS_DEWT_072018.nc | 28-Oct-2024 00:53 | 419282 | ||
| TXPT2_TS_DEWT_072019.nc | 28-Oct-2024 00:53 | 1265532 | ||
| TXPT2_TS_DEWT_072020.nc | 28-Oct-2024 00:53 | 1229824 | ||
| TXPT2_TS_DEWT_072021.nc | 28-Oct-2024 00:53 | 1143103 | ||
| TXPT2_TS_DEWT_072022.nc | 28-Oct-2024 00:54 | 1262878 | ||
| TXPT2_TS_DEWT_082012.nc | 28-Oct-2024 00:54 | 1263383 | ||
| TXPT2_TS_DEWT_082013.nc | 28-Oct-2024 00:54 | 1263335 | ||
| TXPT2_TS_DEWT_082014.nc | 28-Oct-2024 00:54 | 1268695 | ||
| TXPT2_TS_DEWT_082016.nc | 28-Oct-2024 00:54 | 5472224 | ||
| TXPT2_TS_DEWT_082017.nc | 28-Oct-2024 00:54 | 427321 | ||
| TXPT2_TS_DEWT_082018.nc | 28-Oct-2024 00:54 | 429353 | ||
| TXPT2_TS_DEWT_082019.nc | 28-Oct-2024 00:54 | 423100 | ||
| TXPT2_TS_DEWT_082020.nc | 28-Oct-2024 00:54 | 428855 | ||
| TXPT2_TS_DEWT_082021.nc | 28-Oct-2024 00:54 | 422003 | ||
| TXPT2_TS_DEWT_082022.nc | 08-Dec-2024 23:01 | 419957 | ||
| TXPT2_TS_DEWT_092012.nc | 28-Oct-2024 00:54 | 429355 | ||
| TXPT2_TS_DEWT_092013.nc | 28-Oct-2024 00:54 | 429338 | ||
| TXPT2_TS_DEWT_092014.nc | 28-Oct-2024 00:54 | 429344 | ||
| TXPT2_TS_DEWT_092015.nc | 28-Oct-2024 00:54 | 425956 | ||
| TXPT2_TS_DEWT_092016.nc | 28-Oct-2024 00:54 | 429353 | ||
| TXPT2_TS_DEWT_092017.nc | 28-Oct-2024 00:54 | 429365 | ||
| TXPT2_TS_DEWT_092018.nc | 28-Oct-2024 00:55 | 429366 | ||
| TXPT2_TS_DEWT_092019.nc | 28-Oct-2024 00:55 | 429371 | ||
| TXPT2_TS_DEWT_092020.nc | 28-Oct-2024 00:55 | 429360 | ||
| TXPT2_TS_DEWT_092021.nc | 28-Oct-2024 00:55 | 429372 | ||
| TXPT2_TS_DEWT_092022.nc | 08-Dec-2024 23:02 | 429370 | ||
| TXPT2_TS_DEWT_102012.nc | 28-Oct-2024 00:55 | 429362 | ||
| TXPT2_TS_DEWT_102013.nc | 28-Oct-2024 00:55 | 429366 | ||
| TXPT2_TS_DEWT_102014.nc | 28-Oct-2024 00:55 | 429567 | ||
| TXPT2_TS_DEWT_102015.nc | 28-Oct-2024 00:55 | 429574 | ||
| TXPT2_TS_DEWT_102016.nc | 28-Oct-2024 00:55 | 429573 | ||
| TXPT2_TS_DEWT_102017.nc | 28-Oct-2024 00:55 | 429573 | ||
| TXPT2_TS_DEWT_102018.nc | 28-Oct-2024 00:55 | 429572 | ||
| TXPT2_TS_DEWT_102019.nc | 28-Oct-2024 00:55 | 426735 | ||
| TXPT2_TS_DEWT_102020.nc | 28-Oct-2024 00:55 | 429568 | ||
| TXPT2_TS_DEWT_102021.nc | 28-Oct-2024 00:55 | 425322 | ||
| TXPT2_TS_DEWT_102022.nc | 08-Dec-2024 23:02 | 429573 | ||
| TXPT2_TS_DEWT_112012.nc | 28-Oct-2024 00:55 | 429499 | ||
| TXPT2_TS_DEWT_112013.nc | 28-Oct-2024 00:56 | 1110406 | ||
| TXPT2_TS_DEWT_112015.nc | 28-Oct-2024 00:56 | 994869 | ||
| TXPT2_TS_DEWT_112016.nc | 28-Oct-2024 00:56 | 1031964 | ||
| TXPT2_TS_DEWT_112017.nc | 28-Oct-2024 00:56 | 1110152 | ||
| TXPT2_TS_DEWT_112018.nc | 28-Oct-2024 00:56 | 1113567 | ||
| TXPT2_TS_DEWT_112019.nc | 28-Oct-2024 00:56 | 1113717 | ||
| TXPT2_TS_DEWT_112020.nc | 28-Oct-2024 00:56 | 1111798 | ||
| TXPT2_TS_DEWT_112021.nc | 28-Oct-2024 00:56 | 4841566 | ||
| TXPT2_TS_DEWT_112022.nc | 08-Dec-2024 23:03 | 429682 | ||
| TXPT2_TS_DEWT_122012.nc | 28-Oct-2024 00:56 | 429687 | ||
| TXPT2_TS_DEWT_122013.nc | 28-Oct-2024 00:56 | 429685 | ||
| TXPT2_TS_DEWT_122015.nc | 28-Oct-2024 00:56 | 429695 | ||
| TXPT2_TS_DEWT_122016.nc | 28-Oct-2024 00:56 | 429696 | ||
| TXPT2_TS_DEWT_122017.nc | 28-Oct-2024 00:56 | 429703 | ||
| TXPT2_TS_DEWT_122018.nc | 28-Oct-2024 00:56 | 427874 | ||
| TXPT2_TS_DEWT_122019.nc | 28-Oct-2024 00:56 | 429691 | ||
| TXPT2_TS_DEWT_122020.nc | 28-Oct-2024 00:56 | 429677 | ||
| TXPT2_TS_DEWT_122021.nc | 28-Oct-2024 00:57 | 429690 | ||
| TXPT2_TS_DEWT_122022.nc | 08-Dec-2024 23:03 | 429668 | ||